www.pogodaiklimat.ru

Погода и климат >> Архив погоды >> Россия >> Крым >> Евпатория


ПОГОДА в Евпатории

АРХИВ ПОГОДЫ в Евпатории

Время (UTC), дата Ветер
(напр.,м/с)
 
Видим.   Явления Облачность Т
(С)
Тd
(С)
f
(%)
Тe
(С)
Тes
(С)
Комфортность P
(гПа)
Po
(гПа)
Тmin
(С)
Tmax
(С)
R
(мм)
R24
(мм)
S
(см)
18 13.05 ЮЗ 4
{10}
20 км 9/9 600 м
[Cb cap]
+16.1 +14.4 90 +15 +15 тепло 1013.6 1012.4 +20.4
21 13.05 Ю 5 10 км 6/6 600 м
[Sc]
+15.8 +12.9 83 +15 +15 тепло 1014.5 1013.3
00 14.05 ЮЗ 5
{10}
10 км ясно +15.3 +11.8 80 +14 +14 тепло 1014.6 1013.4
03 14.05 Ю 1 20 км 3/0
[Ci fib]
+14.0 +10.4 79 +14 +15 по сезону 1015.9 1014.7 +13.8
06 14.05 ЮЗ 1 20 км 3/0
[Ci fib]
+15.3 +8.0 62 +16 +25 тепло 1016.7 1015.5 +13.8
09 14.05 ЮЗ 3 20 км 3/0
[Ci fib]
+19.5 +11.1 58 +21 +35 комфорт 1017.5 1016.3
12 14.05 З 5 20 км 6/6 600 м
[Sc]
+20.9 +7.3 41 +22 +25 комфорт 1017.6 1016.4
15 14.05 З 5 20 км 3/3 600 м
[Sc]
+19.4 +7.7 47 +20 +21 тепло 1017.6 1016.4
18 14.05 СЗ 3
{10}
20 км 1/0
[Ac lent]
+16.2 +3.1 41 +16 +16 тепло 1018.7 1017.5 +22.4
21 14.05 СЗ 2 10 км ясно +13.6 +9.3 75 +13 +13 по сезону 1019.2 1018.0
00 15.05 СЗ 2 10 км ясно +12.8 +4.9 59 +12 +12 по сезону 1019.4 1018.2
03 15.05 СВ 1 50 км ясно +11.0 +8.1 82 +11 +11 по сезону 1019.7 1018.5 +11.0
06 15.05 С 2 20 км ясно +16.5 +10.3 67 +17 +25 тепло 1020.5 1019.3 +11.0
09 15.05 СЗ 1 20 км 3/3 600 м
[Cu hum]
+21.2 +12.8 59 +23 +38 комфорт 1020.3 1019.1
12 15.05 З 6
{10}
20 км 3/3 600 м
[Cu med, cong]
+21.8 +8.9 44 +23 +27 комфорт 1020.3 1019.1
15 15.05 З 4 20 км 3/3 600 м
[Cu med, cong]
+20.9 +8.7 46 +23 +24 комфорт 1019.7 1018.5
18 15.05 ЮЗ 2 20 км ясно +17.3 +9.9 62 +18 +18 тепло 1019.4 1018.2 +23.0
21 15.05 ЮЗ 2 10 км ясно +14.0 +11.4 84 +13 +13 по сезону 1019.4 1018.2
00 16.05 999 2 10 км ясно +13.5 +11.4 87 1018.9 1017.7
03 16.05 999 3 20 км ясно +11.7 +10.2 91 1018.4 1017.2 +11.6
06 16.05 ЮЗ 1 20 км 8/0
[Ci fib]
+17.5 +12.5 72 +19 +27 тепло 1018.2 1017.0 +11.6
09 16.05 ЮЗ 3 20 км 10/0
[Ci fib]
+21.1 +14.7 67 +24 +36 комфорт 1017.8 1016.6
12 16.05 ЮЗ 5 20 км 10/0
[Ci fib]
+21.8 +15.5 67 +25 +31 комфорт 1017.2 1016.0
15 16.05 ЮЗ 3 20 км 10/0
[Ci fib]
+20.0 +13.7 67 +22 +24 комфорт 1016.3 1015.1
18 16.05 ЮЗ 3 20 км 10/0
[Ac lent Ci fib]
+18.0 +13.4 74 +18 +18 тепло 1015.6 1014.4 +22.5
21 16.05 ЮЗ 3 10 км 10/0
[Ci fib]
+17.3 +14.4 83 +17 +17 тепло 1016.9 1015.7
00 17.05 ЮЗ 3 10 км 10/0
[Ci fib]
+16.0 +12.9 82 +16 +16 тепло 1016.6 1015.4
03 17.05 В 1 20 км 10/0
[Ci fib]
+17.0 +14.9 87 +18 +18 тепло 1016.2 1015.0 +15.9
06 17.05 Ю 2 50 км 10/0
[Ci sp]
+19.2 +12.8 66 +21 +28 комфорт 1016.7 1015.5 +15.9
09 17.05 ЮЗ 3 50 км 10/0
[Ac und]
+23.2 +13.6 55 +27 +31 душно 1016.7 1015.5
12 17.05 Ю 1 20 км 4 балла +25.6 +9.8 37 +26 +36 жарко 1015.9 1014.7
15 17.05 СЗ 2 50 км 10/10 600 м
[Cb cap]
+24.2 +15.5 58 +27 +27 жарко 1014.4 1013.2 0.0
18 17.05 Ю 5 20 км 10/10 600 м
[Sc]
+19.8 +13.1 65 +21 +21 комфорт 1013.6 1012.4 +27.1 0.0
21 17.05 ЮВ 1 10 км 4/0
[Ac trans]
+19.0 +15.3 79 +21 +21 комфорт 1014.2 1013.0
00 18.05 ЮЗ 3 10 км ясно +17.8 +16.1 90 +18 +18 тепло 1013.7 1012.5
03 18.05 ЮЗ 4 20 км 10/0
[Ci sp]
+17.4 +16.6 95 +17 +17 тепло 1013.6 1012.4 +17.2
06 18.05 З 3 20 км 10/10 600 м
[Cb cap]
+18.0 +15.1 83 +18 +18 тепло 1014.6 1013.4 +16.9
09 18.05 ЮЗ 2 20 км 8/0
[Ac cast Cc]
+20.6 +15.6 73 +24 +36 комфорт 1015.2 1014.0
12 18.05 З 4 20 км 3/1 600 м
[Cu med, cong Ci fib]
+21.0 +15.5 71 +25 +33 комфорт 1015.1 1013.9 +4.4
15 18.05 З 4 20 км ясно +21.6 +16.0 70 +25 +27 комфорт 1014.3 1013.1
18 18.05 З 2 500 м туман ?/? +16.3 +15.5 95 +16 +16 тепло 1014.9 1013.7 +22.4
21 18.05 З 1 200 м туман ?/? +16.0 +15.7 98 +17 +17 тепло 1015.1 1013.9
00 19.05 ЮЗ 2 10 км {туман} ясно +16.8 +16.3 97 +17 +17 тепло 1014.6 1013.4
03 19.05 ЮЗ 2 20 км 10/0
[Ci fib]
+17.1 +16.6 97 +17 +18 тепло 1014.1 1012.9 +15.8
06 19.05 ЮЗ 2 20 км 10/0
[Ci fib]
+19.7 +13.4 67 +22 +29 комфорт 1014.5 1013.3 +15.8
09 19.05 З 2 20 км 10/0
[Ci fib]
+20.9 +17.2 79 +25 +40 комфорт 1014.8 1013.6
12 19.05 З 2 20 км 10/6 600 м
[Cb cap Ci fib]
+19.7 +17.1 85 +23 +27 комфорт 1015.2 1014.0
15 19.05 З 1 50 км {ливн. осадки} 10/8 600 м
[Cb cap Ac und]
+20.8 +16.3 75 +25 +25 комфорт 1014.3 1013.1 0.1
18 19.05 З 2 10 км слабый ливневой дождь 10/10 600 м
[Cb cap]
+18.8 +15.4 81 +20 +20 тепло 1014.2 1013.0 +21.9 0.4
21 19.05 СВ 1 10 км {ливн. осадки} 1/1 600 м
[Cb cap]
+17.6 +13.3 76 +19 +19 тепло 1014.1 1012.9
00 20.05 ЮВ 1 10 км {ливн. осадки} 4/0
[Ci sp]
+15.1 +13.5 90 +16 +16 тепло 1013.9 1012.7
03 20.05 СВ 1 20 км 9 баллов +15.5 +13.5 88 +16 +16 тепло 1014.5 1013.3 +15.0 0.3
06 20.05 СВ 1 20 км 7 баллов +20.5 +12.5 60 +24 +27 комфорт 1015.9 1014.7 +15.0 0.0
09 20.05 З 1 20 км 10 баллов +20.7 +15.5 72 +25 +25 комфорт 1015.9 1014.7
12 20.05 З 5 20 км 6 баллов +25.0 +13.5 49 +27 +30 жарко 1015.9 1014.7

 

Местоположение метеостанции Евпатория (Крым, Россия): широта 45.18 долгота 33.37 высота над уровнем моря 10 м.

В архиве по умолчанию представлена погода в Евпатории за последнюю неделю. Архивные данные за месяц целиком и за предыдущие месяцы, начиная с января 2011 года, Вы можете получить, выбрав интересующий диапазон дат из раскрывающегося списка и нажав кнопку "Ввод!".


*Определитесь, кто Вы:
робот инопланетянин человек

Внимание! Время в таблицах - всемирное. Для получения местного времени необходимо прибавить поправку, которая в Евпатории равна 3 ч.

Смотрите также архив погоды в соседних городах и на ближайших метеорологических станциях:

Погода в Симферополе (Крым, Россия) (50 км)
Погода в Почтовом (Крым, Россия) (60 км)
Погода в Севастополе (город Севастополь, Россия) (64 км)
Погода в Симферополе город (Крым, Россия) (64 км)
Погода в Черноморском (Крым, Россия) (65 км)
Погода в Херсонесском Маяке (город Севастополь, Россия) (67 км)
Погода в Раздольном (Крым, Россия) (67 км)
Погода в Клепинино (Крым, Россия) (74 км)
Погода в Ишуни (Крым, Россия) (89 км)
Погода в Ангарском Перевале (Крым, Россия) (91 км)

Пояснения к столбцам:

Ветер - указаны скорость ветра в м/с - средняя за 10 мин, порывы в срок и между сроками (в фигурных скобках) и направление, откуда дует ветер: С - северный, СВ - северо-восточный, В - восточный, ЮВ - юго-восточный, Ю - южный, ЮЗ - юго-западный, З - западный, СЗ - северо-западный.
Видимость - горизонтальная дальность видимости в метрах или километрах. При видимости от 1 до 10 км при отсутствии осадков обычно наблюдается дымка, при ухудшении видимости до 1 км и менее - туман. В сухую погоду видимость может ухудшаться дымом, пылью или мглою.
Явления - указаны атмосферные явления, наблюдавшиеся в срок или в последний час перед сроком; фигурными скобками обозначены явления, наблюдавшиеся между сроками (за 1-3 часа до срока); квадратными скобками обозначены град или гололедные отложения с указанием их диаметра в мм.
Облачность - указаны через наклонную черту общая и нижняя облачность в баллах и высота нижней границы облаков в метрах; квадратными скобками обозначены формы облаков: Ci - перистые, Cs - перисто-слоистые, Cc - перисто-кучевые, Ac - высококучевые, As - высокослоистые, Sc - слоисто-кучевые, Ns - слоисто-дождевые, Cu - кучевые, Cb - кучево-дождевые. Подробнее классификацию облаков см. в Атласе облаков (PDF).
T - Температура воздуха - температура, измеренная на высоте 2 м над землей.
Td - Температура точки росы - температура, при понижении до которой содержащийся в воздухе водяной пар достигнет насыщения.
f - Относительная влажность воздуха - влажноcть воздуха, измеренная на высоте 2 м над землей.
Te - Эффективная температура - температура, которую ощущает одетый по сезону человек в тени. Характеристика душности погоды. При расчете учитывается влияние влажности воздуха и скорости ветра на теплоощущения человека.
Tes - Эффективная температура на солнце - температура, которую ощущает человек, с поправкой на солнечный нагрев. Характеристика знойности погоды. Зависит от высоты солнца над горизонтом, облачности и скорости ветра. Ночью, в пасмурную погоду, а также при ветре 12 м/с и более поправка равна нулю.
P - Атмосферное давление - приведенное к уровню моря атмосферное давление.
Po - Атмосферное давление - измеренное на уровне метеостанции атмосферное давление.
Tmin - Минимальная температура - минимум температуры воздуха на высоте 2 м над землей.
Tmax - Максимальная температура - максимум температуры воздуха на высоте 2 м над землей.
R - Количество осадков - Количество выпавших осадков за период времени, мм. При наведении курсора мыши на число - период времени, за который выпало указанное количество осадков.
R24 - Количество осадков - Количество выпавших осадков за 24 часа, мм.
S - Снежный покров - Высота снежного покрова, см. При наведении курсора мыши на число - состояние снежного покрова и степень покрытия местности в баллах.